OXF1010 KTPA-KPBI

Flight info

Callsign OXF1010
Flight time 1h 46m
Altitude 9000
Route CEXAN RACNO TTYLR4
Aircraft P28A/L-SBD/C

Departure

Time 2026-04-21 04:00
Airport Tampa International Airport (KTPA)

Arrival

Time 2026-04-21 05:46
Airport Palm Beach International Airport (KPBI)
Time Latitude Longitude Altitude Speed Heading
2026-04-21 03:42 27.96452 -82.52898 12 ft 0 kts
2026-04-21 03:44 27.96462 -82.52903 12 ft 7 kts 319°
2026-04-21 03:45 27.96469 -82.52926 11 ft 1 kts 267°
2026-04-21 03:45 27.96455 -82.52947 11 ft 4 kts 228°
2026-04-21 03:45 27.96444 -82.52985 10 ft 5 kts 270°
2026-04-21 03:45 27.96465 -82.53016 10 ft 4 kts 332°
2026-04-21 03:46 27.96494 -82.53021 10 ft 3 kts
2026-04-21 03:46 27.96524 -82.53018 10 ft 0 kts 18°
2026-04-21 03:46 27.96529 -82.53001 11 ft 0 kts 110°
2026-04-21 03:55 27.96526 -82.52988 11 ft 2 kts 98°
2026-04-21 03:55 27.96525 -82.52957 11 ft 7 kts 89°
2026-04-21 03:56 27.96537 -82.52912 12 ft 4 kts 47°
2026-04-21 03:56 27.96559 -82.52891 13 ft 1 kts 35°
2026-04-21 03:56 27.96579 -82.52890 13 ft 4 kts 347°
2026-04-21 03:56 27.96591 -82.52892 13 ft 0 kts
2026-04-21 03:59 27.96805 -82.52951 20 ft 52 kts 340°
2026-04-21 04:00 27.97702 -82.52891 284 ft 76 kts 359°
2026-04-21 04:00 27.98305 -82.52930 411 ft 90 kts
2026-04-21 04:00 27.98876 -82.52890 755 ft 78 kts 12°
2026-04-21 04:00 27.99460 -82.52885 873 ft 95 kts
2026-04-21 04:01 28.00040 -82.52965 1256 ft 79 kts
2026-04-21 04:01 28.00570 -82.53085 1520 ft 79 kts
2026-04-21 04:01 28.01094 -82.53281 1784 ft 82 kts 347°
2026-04-21 04:01 28.01418 -82.53872 2056 ft 100 kts 288°
2026-04-21 04:02 28.01395 -82.54648 2294 ft 102 kts 262°
2026-04-21 04:02 28.01261 -82.55478 2470 ft 106 kts 269°
2026-04-21 04:02 28.01103 -82.56268 2734 ft 99 kts 264°
2026-04-21 04:02 28.00930 -82.56999 2978 ft 97 kts 241°
2026-04-21 04:03 28.00377 -82.57269 3114 ft 91 kts 161°
2026-04-21 04:03 27.99798 -82.57101 3307 ft 85 kts 139°
2026-04-21 04:03 27.99251 -82.56845 3552 ft 79 kts 140°
2026-04-21 04:03 27.98771 -82.56597 3742 ft 78 kts 138°
2026-04-21 04:04 27.98337 -82.56330 3931 ft 72 kts 126°
2026-04-21 04:04 27.97884 -82.56031 4082 ft 77 kts 129°
2026-04-21 04:04 27.97392 -82.55762 4274 ft 82 kts 145°
2026-04-21 04:04 27.96826 -82.55585 4433 ft 85 kts 145°
2026-04-21 04:05 27.96267 -82.55316 4579 ft 88 kts 136°
2026-04-21 04:05 27.95658 -82.55023 4720 ft 98 kts 144°
2026-04-21 04:05 27.95007 -82.54730 4865 ft 104 kts 147°
2026-04-21 04:05 27.94310 -82.54414 5014 ft 109 kts 148°
2026-04-21 04:06 27.93598 -82.54092 5157 ft 113 kts 149°
2026-04-21 04:06 27.92855 -82.53752 5303 ft 116 kts 148°
2026-04-21 04:06 27.92093 -82.53402 5447 ft 118 kts 148°
2026-04-21 04:06 27.91320 -82.53044 5590 ft 120 kts 149°
2026-04-21 04:07 27.90536 -82.52680 5733 ft 121 kts 149°
2026-04-21 04:07 27.89753 -82.52318 5873 ft 122 kts 149°
2026-04-21 04:07 27.88967 -82.51950 6016 ft 122 kts 150°
2026-04-21 04:07 27.88176 -82.51582 6157 ft 123 kts 150°
2026-04-21 04:08 27.87382 -82.51211 6301 ft 123 kts 150°
2026-04-21 04:08 27.86585 -82.50841 6444 ft 123 kts 150°
2026-04-21 04:08 27.85792 -82.50471 6585 ft 123 kts 149°
2026-04-21 04:08 27.84992 -82.50096 6728 ft 123 kts 150°
2026-04-21 04:09 27.84203 -82.49728 6870 ft 123 kts 150°
2026-04-21 04:09 27.83398 -82.49354 7014 ft 123 kts 150°
2026-04-21 04:09 27.82601 -82.48981 7159 ft 123 kts 152°
2026-04-21 04:09 27.81812 -82.48612 7302 ft 122 kts 151°
2026-04-21 04:10 27.81022 -82.48247 7444 ft 122 kts 151°
2026-04-21 04:10 27.80235 -82.47879 7587 ft 121 kts 151°
2026-04-21 04:10 27.79460 -82.47517 7727 ft 121 kts 151°
2026-04-21 04:10 27.78677 -82.47150 7870 ft 120 kts 152°
2026-04-21 04:11 27.77901 -82.46790 8012 ft 120 kts 152°
2026-04-21 04:11 27.77131 -82.46431 8155 ft 119 kts 152°
2026-04-21 04:11 27.76362 -82.46072 8298 ft 119 kts 152°
2026-04-21 04:11 27.75604 -82.45718 8439 ft 118 kts 152°
2026-04-21 04:12 27.74841 -82.45363 8582 ft 117 kts 153°
2026-04-21 04:12 27.74083 -82.45010 8728 ft 117 kts 153°
2026-04-21 04:12 27.73381 -82.44685 8861 ft 116 kts 153°
2026-04-21 04:14 27.73101 -82.44553 8914 ft 116 kts 153°
2026-04-21 04:14 27.72353 -82.44205 9029 ft 118 kts 153°
2026-04-21 04:14 27.71550 -82.43830 9046 ft 128 kts 154°
2026-04-21 04:15 27.70744 -82.43431 9049 ft 128 kts 148°
2026-04-21 04:15 27.69921 -82.43012 9059 ft 132 kts 159°
2026-04-21 04:15 27.69053 -82.42641 9042 ft 133 kts 156°
2026-04-21 04:15 27.68175 -82.42255 9044 ft 134 kts 155°
2026-04-21 04:16 27.67312 -82.41864 9043 ft 135 kts 154°
2026-04-21 04:16 27.66433 -82.41459 9038 ft 135 kts 154°
2026-04-21 04:16 27.65564 -82.41055 9041 ft 135 kts 155°
2026-04-21 04:16 27.64688 -82.40650 9038 ft 136 kts 154°
2026-04-21 04:17 27.63802 -82.40240 9035 ft 136 kts 154°
2026-04-21 04:17 27.62925 -82.39833 9036 ft 136 kts 154°
2026-04-21 04:17 27.62056 -82.39429 9039 ft 135 kts 154°
2026-04-21 04:17 27.61183 -82.39023 9040 ft 136 kts 154°
2026-04-21 04:18 27.60301 -82.38613 9038 ft 135 kts 154°
2026-04-21 04:18 27.59434 -82.38211 9037 ft 135 kts 155°
2026-04-21 04:18 27.58553 -82.37803 9037 ft 135 kts 154°
2026-04-21 04:18 27.57678 -82.37395 9039 ft 135 kts 154°
2026-04-21 04:19 27.56799 -82.36987 9039 ft 135 kts 154°
2026-04-21 04:19 27.55967 -82.36608 9036 ft 135 kts 155°
2026-04-21 04:20 27.55502 -82.36387 9037 ft 135 kts 153°
2026-04-21 04:20 27.54633 -82.35986 9035 ft 135 kts 153°
2026-04-21 04:21 27.53762 -82.35574 9031 ft 135 kts 153°
2026-04-21 04:21 27.52883 -82.35163 9033 ft 135 kts 154°
2026-04-21 04:21 27.52007 -82.34757 9029 ft 135 kts 155°
2026-04-21 04:21 27.51133 -82.34353 9029 ft 135 kts 155°
2026-04-21 04:22 27.50262 -82.33953 9029 ft 135 kts 154°
2026-04-21 04:22 27.49383 -82.33546 9026 ft 136 kts 154°
2026-04-21 04:22 27.48506 -82.33142 9020 ft 136 kts 154°
2026-04-21 04:22 27.47625 -82.32735 9017 ft 136 kts 154°
2026-04-21 04:23 27.46737 -82.32323 9015 ft 137 kts 154°
2026-04-21 04:23 27.45863 -82.31920 9015 ft 136 kts 154°
2026-04-21 04:23 27.44975 -82.31509 9015 ft 136 kts 154°
2026-04-21 04:23 27.44101 -82.31104 9016 ft 136 kts 154°
2026-04-21 04:24 27.43211 -82.30694 9014 ft 136 kts 155°
2026-04-21 04:24 27.42334 -82.30286 9015 ft 136 kts 154°
2026-04-21 04:24 27.41464 -82.29884 9015 ft 136 kts 155°
2026-04-21 04:24 27.40582 -82.29477 9013 ft 136 kts 154°
2026-04-21 04:25 27.39704 -82.29071 9015 ft 136 kts 154°
2026-04-21 04:25 27.38820 -82.28661 9017 ft 136 kts 155°
2026-04-21 04:25 27.37933 -82.28252 9015 ft 136 kts 154°
2026-04-21 04:25 27.37054 -82.27846 9014 ft 136 kts 154°
2026-04-21 04:26 27.36180 -82.27441 9013 ft 136 kts 155°
2026-04-21 04:26 27.35297 -82.27035 9013 ft 136 kts 154°
2026-04-21 04:26 27.34416 -82.26627 9012 ft 136 kts 154°
2026-04-21 04:26 27.33536 -82.26221 9013 ft 139 kts 153°
2026-04-21 04:27 27.32629 -82.25799 9013 ft 143 kts 155°
2026-04-21 04:27 27.31692 -82.25365 9014 ft 146 kts 154°
2026-04-21 04:27 27.30745 -82.24931 9016 ft 147 kts 155°
2026-04-21 04:27 27.29780 -82.24487 9020 ft 148 kts 155°
2026-04-21 04:28 27.28817 -82.24043 9018 ft 149 kts 154°
2026-04-21 04:28 27.27850 -82.23597 9022 ft 150 kts 155°
2026-04-21 04:28 27.26883 -82.23151 9024 ft 150 kts 154°
2026-04-21 04:28 27.25912 -82.22704 9022 ft 150 kts 154°
2026-04-21 04:29 27.24982 -82.22164 9012 ft 147 kts 134°
2026-04-21 04:29 27.24495 -82.21201 9026 ft 142 kts 109°
2026-04-21 04:29 27.24131 -82.20171 9024 ft 141 kts 104°
2026-04-21 04:29 27.23813 -82.19125 9035 ft 141 kts 102°
2026-04-21 04:30 27.23515 -82.18079 9027 ft 142 kts 102°
2026-04-21 04:30 27.23230 -82.17016 9027 ft 143 kts 102°
2026-04-21 04:30 27.22949 -82.15940 9027 ft 144 kts 101°
2026-04-21 04:30 27.22668 -82.14850 9024 ft 144 kts 101°
2026-04-21 04:31 27.22397 -82.13771 9022 ft 144 kts 101°
2026-04-21 04:31 27.22123 -82.12678 9024 ft 144 kts 101°
2026-04-21 04:31 27.21855 -82.11603 9022 ft 144 kts 101°
2026-04-21 04:31 27.21580 -82.10503 9026 ft 144 kts 100°
2026-04-21 04:32 27.21315 -82.09422 9025 ft 144 kts 101°
2026-04-21 04:32 27.21048 -82.08331 9022 ft 144 kts 101°
2026-04-21 04:32 27.20780 -82.07254 9022 ft 144 kts 101°
2026-04-21 04:32 27.20511 -82.06168 9016 ft 138 kts 102°
2026-04-21 04:33 27.20265 -82.05183 9015 ft 127 kts 101°
2026-04-21 04:33 27.20037 -82.04250 9017 ft 120 kts 100°
2026-04-21 04:33 27.19818 -82.03355 9019 ft 117 kts 100°
2026-04-21 04:33 27.19606 -82.02488 9017 ft 115 kts 100°
2026-04-21 04:34 27.19396 -82.01631 9016 ft 113 kts 98°
2026-04-21 04:34 27.19186 -82.00772 9013 ft 112 kts 99°
2026-04-21 04:34 27.18981 -81.99934 9014 ft 111 kts 99°
2026-04-21 04:34 27.18776 -81.99095 9018 ft 110 kts 98°
2026-04-21 04:35 27.18573 -81.98272 9020 ft 110 kts 99°
2026-04-21 04:35 27.18369 -81.97435 9023 ft 110 kts 99°
2026-04-21 04:35 27.18169 -81.96610 9022 ft 110 kts 99°
2026-04-21 04:35 27.17964 -81.95782 9024 ft 110 kts 100°
2026-04-21 04:36 27.17762 -81.94955 9020 ft 110 kts 99°
2026-04-21 04:36 27.17556 -81.94128 9019 ft 110 kts 99°
2026-04-21 04:36 27.17353 -81.93298 9017 ft 109 kts 99°
2026-04-21 04:36 27.17147 -81.92470 9015 ft 109 kts 98°
2026-04-21 04:37 27.16946 -81.91651 9018 ft 109 kts 99°
2026-04-21 04:37 27.16740 -81.90817 9018 ft 110 kts 98°
2026-04-21 04:37 27.16538 -81.89997 9017 ft 110 kts 99°
2026-04-21 04:37 27.16333 -81.89167 9017 ft 110 kts 98°
2026-04-21 04:38 27.16127 -81.88337 9020 ft 110 kts 99°
2026-04-21 04:38 27.15921 -81.87496 9023 ft 111 kts 99°
2026-04-21 04:38 27.15716 -81.86669 9023 ft 111 kts 99°
2026-04-21 04:38 27.15508 -81.85825 9024 ft 111 kts 99°
2026-04-21 04:39 27.15302 -81.84996 9023 ft 111 kts 99°
2026-04-21 04:39 27.15096 -81.84160 9019 ft 110 kts 99°
2026-04-21 04:39 27.14890 -81.83335 9014 ft 110 kts 99°
2026-04-21 04:39 27.14683 -81.82497 9011 ft 110 kts 99°
2026-04-21 04:40 27.14478 -81.81674 9011 ft 110 kts 99°
2026-04-21 04:40 27.14275 -81.80844 9011 ft 110 kts 99°
2026-04-21 04:40 27.14066 -81.80011 9014 ft 110 kts 98°
2026-04-21 04:40 27.13862 -81.79179 9016 ft 110 kts 98°
2026-04-21 04:41 27.13655 -81.78348 9017 ft 111 kts 99°
2026-04-21 04:41 27.13450 -81.77516 9019 ft 111 kts 99°
2026-04-21 04:41 27.13243 -81.76678 9017 ft 111 kts 99°
2026-04-21 04:41 27.13034 -81.75839 9013 ft 111 kts 98°
2026-04-21 04:42 27.12828 -81.75014 9012 ft 110 kts 99°
2026-04-21 04:42 27.12623 -81.74178 9007 ft 110 kts 99°
2026-04-21 04:42 27.12414 -81.73350 9006 ft 110 kts 99°
2026-04-21 04:42 27.12210 -81.72520 9006 ft 109 kts 99°
2026-04-21 04:43 27.12005 -81.71699 9006 ft 109 kts 99°
2026-04-21 04:43 27.11799 -81.70874 9005 ft 109 kts 98°
2026-04-21 04:43 27.11595 -81.70049 9008 ft 109 kts 99°
2026-04-21 04:43 27.11390 -81.69221 9010 ft 110 kts 98°
2026-04-21 04:44 27.11182 -81.68388 9007 ft 110 kts 98°
2026-04-21 04:44 27.10976 -81.67562 9006 ft 110 kts 98°
2026-04-21 04:44 27.10770 -81.66731 9007 ft 110 kts 99°
2026-04-21 04:44 27.10566 -81.65908 9008 ft 110 kts 99°
2026-04-21 04:45 27.10358 -81.65071 9008 ft 111 kts 98°
2026-04-21 04:45 27.10147 -81.64190 9012 ft 123 kts 98°
2026-04-21 04:45 27.09908 -81.63246 9008 ft 125 kts 100°
2026-04-21 04:45 27.09669 -81.62299 9008 ft 124 kts 99°
2026-04-21 04:46 27.09434 -81.61371 9009 ft 123 kts 99°
2026-04-21 04:46 27.09201 -81.60443 9007 ft 123 kts 100°
2026-04-21 04:46 27.08973 -81.59523 9007 ft 122 kts 100°
2026-04-21 04:46 27.08742 -81.58604 9006 ft 122 kts 101°
2026-04-21 04:47 27.08513 -81.57688 9006 ft 121 kts 99°
2026-04-21 04:47 27.08287 -81.56781 9007 ft 121 kts 100°
2026-04-21 04:47 27.08057 -81.55863 9009 ft 121 kts 99°
2026-04-21 04:47 27.07830 -81.54951 9007 ft 121 kts 99°
2026-04-21 04:48 27.07603 -81.54040 9007 ft 121 kts 99°
2026-04-21 04:48 27.07373 -81.53121 9007 ft 121 kts 99°
2026-04-21 04:48 27.07145 -81.52205 9005 ft 121 kts 101°
2026-04-21 04:48 27.06919 -81.51296 9003 ft 121 kts 100°
2026-04-21 04:49 27.06693 -81.50398 9002 ft 120 kts 100°
2026-04-21 04:49 27.06461 -81.49484 9002 ft 120 kts 99°
2026-04-21 04:49 27.06238 -81.48584 9002 ft 120 kts 99°
2026-04-21 04:49 27.06011 -81.47686 9002 ft 120 kts 100°
2026-04-21 04:50 27.05783 -81.46777 9001 ft 120 kts 99°
2026-04-21 04:50 27.05559 -81.45876 8994 ft 119 kts 101°
2026-04-21 04:50 27.05333 -81.45028 8925 ft 105 kts 101°
2026-04-21 04:50 27.05104 -81.44314 8851 ft 90 kts 103°
2026-04-21 04:51 27.04937 -81.43625 8665 ft 101 kts 96°
2026-04-21 04:51 27.04751 -81.42815 8497 ft 110 kts 99°
2026-04-21 04:51 27.04546 -81.41984 8364 ft 106 kts 100°
2026-04-21 04:51 27.04351 -81.41174 8197 ft 110 kts 100°
2026-04-21 04:52 27.04145 -81.40337 8031 ft 112 kts 100°
2026-04-21 04:52 27.03933 -81.39484 7862 ft 114 kts 99°
2026-04-21 04:52 27.03717 -81.38618 7691 ft 115 kts 100°
2026-04-21 04:52 27.03500 -81.37759 7523 ft 116 kts 100°
2026-04-21 04:53 27.03281 -81.36885 7352 ft 116 kts 100°
2026-04-21 04:53 27.03062 -81.36025 7181 ft 111 kts 101°
2026-04-21 04:53 27.02854 -81.35210 7002 ft 104 kts 100°
2026-04-21 04:53 27.02662 -81.34454 6828 ft 99 kts 99°
2026-04-21 04:54 27.02477 -81.33723 6653 ft 95 kts 99°
2026-04-21 04:54 27.02301 -81.33020 6479 ft 93 kts 100°
2026-04-21 04:54 27.02125 -81.32324 6305 ft 91 kts 99°
2026-04-21 04:54 27.01957 -81.31651 6132 ft 89 kts 100°
2026-04-21 04:55 27.01788 -81.30984 5964 ft 88 kts 99°
2026-04-21 04:55 27.01623 -81.30331 5795 ft 86 kts 100°
2026-04-21 04:55 27.01458 -81.29683 5625 ft 85 kts 99°
2026-04-21 04:55 27.01299 -81.29051 5458 ft 84 kts 99°
2026-04-21 04:56 27.01140 -81.28429 5289 ft 82 kts 98°
2026-04-21 04:56 27.00983 -81.27811 5122 ft 81 kts 97°
2026-04-21 04:56 27.00830 -81.27213 4995 ft 76 kts 97°
2026-04-21 04:56 27.00695 -81.26700 4964 ft 63 kts 92°
2026-04-21 04:57 27.00596 -81.26193 4982 ft 72 kts 91°
2026-04-21 04:57 27.00467 -81.25597 4984 ft 86 kts 95°
2026-04-21 04:57 27.00298 -81.24899 4982 ft 95 kts 97°
2026-04-21 04:57 27.00115 -81.24165 4982 ft 99 kts 98°
2026-04-21 04:58 26.99923 -81.23412 4980 ft 101 kts 98°
2026-04-21 04:58 26.99726 -81.22645 4978 ft 103 kts 98°
2026-04-21 04:58 26.99525 -81.21858 4977 ft 104 kts 99°
2026-04-21 04:58 26.99327 -81.21080 4979 ft 104 kts 98°
2026-04-21 04:59 26.99124 -81.20290 4979 ft 104 kts 98°
2026-04-21 04:59 26.98924 -81.19504 4980 ft 105 kts 98°
2026-04-21 04:59 26.98723 -81.18713 4979 ft 105 kts 98°
2026-04-21 04:59 26.98522 -81.17924 4977 ft 106 kts 98°
2026-04-21 05:00 26.98317 -81.17118 4978 ft 106 kts 97°
2026-04-21 05:00 26.98115 -81.16320 4975 ft 106 kts 97°
2026-04-21 05:00 26.97714 -81.14732 4974 ft 106 kts 97°
2026-04-21 05:01 26.97512 -81.13937 4974 ft 105 kts 98°
2026-04-21 05:01 26.97311 -81.13142 4972 ft 105 kts 98°
2026-04-21 05:01 26.97111 -81.12345 4973 ft 105 kts 98°
2026-04-21 05:01 26.96908 -81.11552 4973 ft 105 kts 98°
2026-04-21 05:02 26.96707 -81.10761 4976 ft 105 kts 98°
2026-04-21 05:02 26.96508 -81.09972 4978 ft 105 kts 98°
2026-04-21 05:02 26.96304 -81.09176 4980 ft 106 kts 98°
2026-04-21 05:02 26.96104 -81.08385 4979 ft 106 kts 98°
2026-04-21 05:03 26.95900 -81.07577 4975 ft 106 kts 98°
2026-04-21 05:03 26.95699 -81.06786 4974 ft 106 kts 98°
2026-04-21 05:03 26.95497 -81.05991 4972 ft 106 kts 98°
2026-04-21 05:03 26.95293 -81.05189 4973 ft 106 kts 98°
2026-04-21 05:04 26.95092 -81.04394 4973 ft 106 kts 97°
2026-04-21 05:04 26.94888 -81.03597 4972 ft 106 kts 98°
2026-04-21 05:04 26.94687 -81.02798 4972 ft 106 kts 98°
2026-04-21 05:04 26.94486 -81.02006 4972 ft 105 kts 98°
2026-04-21 05:05 26.94283 -81.01218 4972 ft 105 kts 98°
2026-04-21 05:05 26.94083 -81.00429 4972 ft 105 kts 98°
2026-04-21 05:05 26.93881 -80.99635 4973 ft 105 kts 97°
2026-04-21 05:05 26.93689 -80.98879 4970 ft 105 kts 98°
2026-04-21 05:06 26.93489 -80.98088 4971 ft 105 kts 97°
2026-04-21 05:06 26.93276 -80.97297 4970 ft 107 kts 103°
2026-04-21 05:06 26.93014 -80.96519 4970 ft 105 kts 96°
2026-04-21 05:06 26.92804 -80.95732 4972 ft 105 kts 98°
2026-04-21 05:07 26.92594 -80.94939 4973 ft 106 kts 99°
2026-04-21 05:07 26.92379 -80.94144 4972 ft 107 kts 98°
2026-04-21 05:07 26.92161 -80.93352 4972 ft 107 kts 99°
2026-04-21 05:07 26.91942 -80.92556 4973 ft 107 kts 99°
2026-04-21 05:08 26.91721 -80.91758 4972 ft 107 kts 99°
2026-04-21 05:08 26.91499 -80.90961 4971 ft 107 kts 99°
2026-04-21 05:08 26.91275 -80.90163 4969 ft 107 kts 99°
2026-04-21 05:08 26.91051 -80.89369 4969 ft 107 kts 99°
2026-04-21 05:09 26.90827 -80.88568 4968 ft 107 kts 99°
2026-04-21 05:09 26.90605 -80.87777 4966 ft 107 kts 99°
2026-04-21 05:09 26.90382 -80.86984 4966 ft 107 kts 99°
2026-04-21 05:09 26.90156 -80.86183 4966 ft 107 kts 99°
2026-04-21 05:10 26.89936 -80.85396 4965 ft 106 kts 99°
2026-04-21 05:10 26.89712 -80.84599 4962 ft 106 kts 99°
2026-04-21 05:10 26.89490 -80.83816 4962 ft 106 kts 100°
2026-04-21 05:10 26.89267 -80.83022 4962 ft 106 kts 100°
2026-04-21 05:11 26.89045 -80.82233 4963 ft 106 kts 99°
2026-04-21 05:11 26.88820 -80.81445 4962 ft 106 kts 99°
2026-04-21 05:11 26.88599 -80.80660 4960 ft 106 kts 99°
2026-04-21 05:11 26.88376 -80.79869 4960 ft 105 kts 99°
2026-04-21 05:12 26.88152 -80.79082 4960 ft 105 kts 99°
2026-04-21 05:12 26.87934 -80.78307 4961 ft 105 kts 99°
2026-04-21 05:12 26.87713 -80.77522 4961 ft 105 kts 99°
2026-04-21 05:12 26.87493 -80.76740 4963 ft 105 kts 99°
2026-04-21 05:13 26.87272 -80.75963 4962 ft 105 kts 99°
2026-04-21 05:13 26.87050 -80.75181 4961 ft 105 kts 99°
2026-04-21 05:13 26.86827 -80.74393 4963 ft 105 kts 99°
2026-04-21 05:13 26.86608 -80.73614 4965 ft 105 kts 99°
2026-04-21 05:14 26.86384 -80.72825 4965 ft 106 kts 99°
2026-04-21 05:14 26.86164 -80.72044 4965 ft 106 kts 99°
2026-04-21 05:14 26.85941 -80.71257 4965 ft 105 kts 99°
2026-04-21 05:14 26.85717 -80.70475 4963 ft 105 kts 99°
2026-04-21 05:15 26.85497 -80.69696 4964 ft 105 kts 99°
2026-04-21 05:15 26.85271 -80.68914 4964 ft 106 kts 102°
2026-04-21 05:15 26.84943 -80.68166 4965 ft 107 kts 107°
2026-04-21 05:15 26.84603 -80.67418 4964 ft 107 kts 108°
2026-04-21 05:16 26.84260 -80.66673 4964 ft 107 kts 108°
2026-04-21 05:16 26.83916 -80.65939 4926 ft 105 kts 108°
2026-04-21 05:16 26.83582 -80.65221 4861 ft 104 kts 108°
2026-04-21 05:16 26.83245 -80.64504 4878 ft 95 kts 108°
2026-04-21 05:17 26.82924 -80.63785 4780 ft 113 kts 108°
2026-04-21 05:17 26.82549 -80.62994 4656 ft 114 kts 110°
2026-04-21 05:17 26.82179 -80.62210 4529 ft 113 kts 109°
2026-04-21 05:17 26.81814 -80.61433 4401 ft 112 kts 109°
2026-04-21 05:18 26.81459 -80.60664 4275 ft 111 kts 108°
2026-04-21 05:18 26.81101 -80.59896 4148 ft 110 kts 108°
2026-04-21 05:18 26.80752 -80.59145 4022 ft 110 kts 108°
2026-04-21 05:18 26.80395 -80.58379 3896 ft 109 kts 108°
2026-04-21 05:19 26.80043 -80.57624 3767 ft 109 kts 107°
2026-04-21 05:19 26.79697 -80.56882 3642 ft 108 kts 107°
2026-04-21 05:19 26.79346 -80.56132 3514 ft 108 kts 107°
2026-04-21 05:19 26.78999 -80.55385 3386 ft 108 kts 107°
2026-04-21 05:20 26.78648 -80.54643 3260 ft 107 kts 107°
2026-04-21 05:20 26.78300 -80.53900 3133 ft 107 kts 106°
2026-04-21 05:20 26.77959 -80.53170 3011 ft 105 kts 106°
2026-04-21 05:20 26.77630 -80.52465 2977 ft 98 kts 105°
2026-04-21 05:21 26.77321 -80.51804 2972 ft 94 kts 104°
2026-04-21 05:21 26.77022 -80.51155 2969 ft 94 kts 105°
2026-04-21 05:21 26.76717 -80.50500 2967 ft 94 kts 105°
2026-04-21 05:21 26.76413 -80.49847 2966 ft 95 kts 104°
2026-04-21 05:22 26.76104 -80.49187 2963 ft 95 kts 104°
2026-04-21 05:22 26.75800 -80.48537 2964 ft 95 kts 104°
2026-04-21 05:22 26.75494 -80.47884 2966 ft 95 kts 105°
2026-04-21 05:22 26.75184 -80.47223 2966 ft 95 kts 104°
2026-04-21 05:23 26.74873 -80.46561 2967 ft 95 kts 104°
2026-04-21 05:23 26.74566 -80.45905 2968 ft 95 kts 105°
2026-04-21 05:23 26.74257 -80.45245 2967 ft 96 kts 105°
2026-04-21 05:23 26.73945 -80.44579 2967 ft 96 kts 105°
2026-04-21 05:24 26.73637 -80.43924 2961 ft 96 kts 105°
2026-04-21 05:24 26.73322 -80.43253 2960 ft 96 kts 105°
2026-04-21 05:24 26.73016 -80.42601 2959 ft 96 kts 105°
2026-04-21 05:24 26.72701 -80.41945 2954 ft 89 kts 107°
2026-04-21 05:25 26.72354 -80.41401 2888 ft 86 kts 116°
2026-04-21 05:25 26.72038 -80.40855 2842 ft 82 kts 102°
2026-04-21 05:25 26.71763 -80.40302 2854 ft 81 kts 106°
2026-04-21 05:25 26.71509 -80.39775 2894 ft 77 kts 98°
2026-04-21 05:26 26.71275 -80.39231 2929 ft 77 kts 99°
2026-04-21 05:26 26.71047 -80.38687 2979 ft 75 kts 101°
2026-04-21 05:26 26.70815 -80.38168 3021 ft 75 kts 97°
2026-04-21 05:26 26.70611 -80.37604 3026 ft 83 kts 97°
2026-04-21 05:27 26.70355 -80.36989 2996 ft 89 kts 105°
2026-04-21 05:27 26.70015 -80.36414 3017 ft 89 kts 110°
2026-04-21 05:27 26.69732 -80.35819 3010 ft 89 kts 101°
2026-04-21 05:27 26.69451 -80.35199 3006 ft 90 kts 106°
2026-04-21 05:28 26.69163 -80.34592 3063 ft 81 kts 96°
2026-04-21 05:28 26.69207 -80.34016 3090 ft 76 kts 55°
2026-04-21 05:28 26.69650 -80.33742 3160 ft 81 kts 13°
2026-04-21 05:28 26.70242 -80.33941 3086 ft 97 kts 348°
2026-04-21 05:29 26.70670 -80.34173 3059 ft 93 kts 345°
2026-04-21 05:29 26.70702 -80.34195 3051 ft 94 kts 344°
2026-04-21 05:29 26.71166 -80.34771 3009 ft 103 kts 312°
2026-04-21 05:30 26.71360 -80.35438 2894 ft 125 kts 297°
2026-04-21 05:31 26.71474 -80.35877 2853 ft 126 kts 297°
2026-04-21 05:32 26.71545 -80.36211 2982 ft 114 kts 291°
2026-04-21 05:32 26.71491 -80.36956 3019 ft 120 kts 266°
2026-04-21 05:32 26.71331 -80.37899 3015 ft 126 kts 263°
2026-04-21 05:33 26.70940 -80.38773 3030 ft 129 kts 226°
2026-04-21 05:33 26.70177 -80.39246 3040 ft 123 kts 183°
2026-04-21 05:33 26.69357 -80.39293 2976 ft 109 kts 162°
2026-04-21 05:33 26.68794 -80.38971 2940 ft 86 kts 113°
2026-04-21 05:34 26.68683 -80.38348 2785 ft 84 kts 78°
2026-04-21 05:34 26.68685 -80.37788 2943 ft 66 kts 81°
2026-04-21 05:34 26.68659 -80.37255 2958 ft 72 kts 83°
2026-04-21 05:34 26.68649 -80.37013 2955 ft 74 kts 79°
2026-04-21 05:35 26.68661 -80.36746 2947 ft 76 kts 78°
2026-04-21 05:35 26.68821 -80.36198 2956 ft 74 kts 62°
2026-04-21 05:35 26.69004 -80.35637 2946 ft 79 kts 71°
2026-04-21 05:35 26.69066 -80.35027 2970 ft 80 kts 79°
2026-04-21 05:36 26.69086 -80.34407 3007 ft 78 kts 79°
2026-04-21 05:36 26.69118 -80.33786 2980 ft 83 kts 79°
2026-04-21 05:36 26.69059 -80.33126 2970 ft 85 kts 90°
2026-04-21 05:36 26.69040 -80.32461 2926 ft 85 kts 79°
2026-04-21 05:37 26.69013 -80.31828 2841 ft 79 kts 88°
2026-04-21 05:37 26.68871 -80.31269 2835 ft 66 kts 91°
2026-04-21 05:37 26.68832 -80.30759 2803 ft 67 kts 87°
2026-04-21 05:37 26.68843 -80.30230 2786 ft 71 kts 70°
2026-04-21 05:38 26.68819 -80.29632 2755 ft 73 kts 80°
2026-04-21 05:38 26.68892 -80.29057 2596 ft 79 kts 81°
2026-04-21 05:38 26.68882 -80.28423 2479 ft 78 kts 84°
2026-04-21 05:38 26.68853 -80.27839 2379 ft 75 kts 80°
2026-04-21 05:39 26.68835 -80.27269 2282 ft 74 kts 79°
2026-04-21 05:39 26.68817 -80.26654 2049 ft 87 kts 82°
2026-04-21 05:39 26.68828 -80.25983 1844 ft 83 kts 74°
2026-04-21 05:39 26.68845 -80.25446 1984 ft 58 kts 80°
2026-04-21 05:40 26.68845 -80.24950 1972 ft 69 kts 77°
2026-04-21 05:40 26.68898 -80.24385 2006 ft 74 kts 72°
2026-04-21 05:40 26.68885 -80.23802 2095 ft 75 kts 82°
2026-04-21 05:40 26.68860 -80.23253 2087 ft 67 kts 83°
2026-04-21 05:41 26.68808 -80.22716 2055 ft 69 kts 82°
2026-04-21 05:41 26.68777 -80.22189 2027 ft 69 kts 81°
2026-04-21 05:41 26.68764 -80.21648 1978 ft 71 kts 80°
2026-04-21 05:41 26.68745 -80.21087 1900 ft 73 kts 80°
2026-04-21 05:42 26.68751 -80.20513 1781 ft 75 kts 79°
2026-04-21 05:42 26.68726 -80.19930 1698 ft 74 kts 84°
2026-04-21 05:42 26.68674 -80.19338 1598 ft 77 kts 82°
2026-04-21 05:42 26.68624 -80.18727 1476 ft 78 kts 87°
2026-04-21 05:43 26.68491 -80.18124 1350 ft 78 kts 88°
2026-04-21 05:43 26.68510 -80.17551 1236 ft 74 kts 73°
2026-04-21 05:43 26.68544 -80.16968 1143 ft 76 kts 81°
2026-04-21 05:43 26.68502 -80.16368 1056 ft 81 kts 83°
2026-04-21 05:44 26.68506 -80.15735 943 ft 82 kts 75°
2026-04-21 05:44 26.68457 -80.15100 838 ft 85 kts 90°
2026-04-21 05:44 26.68388 -80.14426 699 ft 83 kts 79°
2026-04-21 05:44 26.68390 -80.13808 637 ft 77 kts 81°
2026-04-21 05:45 26.68385 -80.13203 514 ft 78 kts 73°
2026-04-21 05:45 26.68381 -80.12560 367 ft 85 kts 82°
2026-04-21 05:45 26.68343 -80.11937 268 ft 73 kts 84°
2026-04-21 05:45 26.68336 -80.11372 206 ft 72 kts 76°
2026-04-21 05:46 26.68327 -80.10786 48 ft 76 kts 83°
2026-04-21 05:46 26.68291 -80.10292 20 ft 52 kts 79°
2026-04-21 05:46 26.68287 -80.10019 14 ft 12 kts 221°
2026-04-21 05:46 26.68271 -80.10032 14 ft 18 kts 170°
2026-04-21 05:47 26.68255 -80.10005 14 ft 0 kts 286°